Indianapolis, IN

12:25 PM EDT on March 25, 2017 (GMT -0400)
Indianapolis Terry

Weather History for KTYQ - January, 2014

Change the Weather History Date:

Wednesday, January 29, 2014

  Actual Average (KEYE) Record (KEYE)
Temperature  
Mean Temperature 12 °F -  
Max Temperature 23 °F 35 °F 64 °F (2002)
Min Temperature 0 °F 20 °F 2 °F (2014)
Degree Days  
Heating Degree Days 54    
Moisture  
Dew Point -1 °F    
Average Humidity 56    
Maximum Humidity 69    
Minimum Humidity 43    
Precipitation  
Precipitation 0.00 in - - ()
Sea Level Pressure  
Sea Level Pressure 30.25 in    
Wind  
Wind Speed 9 mph (SW)    
Max Wind Speed 17 mph    
Max Gust Speed 24 mph    
Visibility 10 miles    
Events      
Averages and records for this station are not official NWS values.
T = Trace of Precipitation, MM = Missing Value Source: NWS Daily Summary

Daily Weather History Graph

Daily Weather History Graph

Search for Another Location

Airport or City:

Trip Planner

Search our weather history database for the weather conditions in past years. The results will help you decide how hot, cold, wet, or windy it might be!

Date:

Astronomy

Jan. 29, 2014 Rise Set
Actual Time 7:56 AM EST 6:00 PM EST
Civil Twilight 7:27 AM EST 6:29 PM EST
Nautical Twilight 6:54 AM EST 7:01 PM EST
Astronomical Twilight 6:22 AM EST 7:33 PM EST
Moon 6:32 AM EST (1/29) 4:59 PM EST (1/29)
Length of Visible Light 11h 02m
Length of Day
10h 04m
Waning Crescent, 2% of the Moon is Illuminated
Jan 29
Waning Crescent
Jan 30
New
Feb 6
First Quarter
Feb 14
Full
Feb 22
Last Quarter

Hourly Weather History & Observations

Time (EST) Temp. Windchill Dew Point Humidity Pressure Visibility Wind Dir Wind Speed Gust Speed Precip Events Conditions
12:15 AM 0.7 °F -10.7 °F -7.8 °F 68% 30.29 in 10.0 mi SW 5.8 mph - N/A   Clear
12:35 AM 1.2 °F -8.5 °F -7.6 °F 67% 30.29 in 10.0 mi WSW 4.6 mph - N/A   Clear
12:55 AM 0.5 °F -11.0 °F -8.0 °F 68% 30.29 in 10.0 mi SW 5.8 mph - N/A   Clear
1:15 AM -0.0 °F -9.9 °F -8.3 °F 68% 30.28 in 10.0 mi SSW 4.6 mph - N/A   Clear
1:35 AM -0.0 °F -9.9 °F -8.1 °F 69% 30.28 in 10.0 mi SSW 4.6 mph - N/A   Clear
1:55 AM 0.1 °F -11.4 °F -8.0 °F 69% 30.28 in 10.0 mi SSW 5.8 mph - N/A   Clear
2:15 AM -0.4 °F -10.4 °F -8.5 °F 69% 30.28 in 10.0 mi SSW 4.6 mph - N/A   Clear
2:35 AM -0.2 °F -11.8 °F -8.3 °F 69% 30.28 in 10.0 mi SSW 5.8 mph - N/A   Clear
2:55 AM 0.1 °F -12.8 °F -7.8 °F 69% 30.28 in 10.0 mi SSW 6.9 mph - N/A   Clear
3:15 AM 0.9 °F -13.1 °F -7.6 °F 68% 30.27 in 10.0 mi SSW 8.1 mph - N/A   Clear
3:35 AM 1.4 °F -12.5 °F -7.2 °F 67% 30.27 in 10.0 mi SSW 8.1 mph - N/A   Clear
3:55 AM 1.6 °F -12.2 °F -7.1 °F 67% 30.27 in 10.0 mi SW 8.1 mph - N/A   Clear
4:15 AM 1.4 °F -12.5 °F -7.1 °F 68% 30.26 in 10.0 mi SW 8.1 mph - N/A   Clear
4:35 AM 2.1 °F -11.6 °F -6.7 °F 67% 30.26 in 10.0 mi SW 8.1 mph - N/A   Clear
4:55 AM 2.8 °F -11.7 °F -6.7 °F 64% 30.25 in 10.0 mi SSW 9.2 mph - N/A   Clear
5:15 AM 3.2 °F -10.3 °F -6.7 °F 63% 30.25 in 10.0 mi SSW 8.1 mph - N/A   Clear
5:35 AM 3.2 °F -11.3 °F -6.7 °F 63% 30.25 in 10.0 mi SW 9.2 mph - N/A   Clear
5:55 AM 3.2 °F -11.3 °F -6.5 °F 64% 30.25 in 10.0 mi SSW 9.2 mph - N/A   Clear
6:15 AM 3.2 °F -11.3 °F -6.7 °F 63% 30.26 in 10.0 mi SW 9.2 mph - N/A   Clear
6:35 AM 3.6 °F -10.9 °F -6.7 °F 62% 30.25 in 10.0 mi SW 9.2 mph - N/A   Clear
6:55 AM 4.1 °F -10.2 °F -6.3 °F 62% 30.25 in 10.0 mi SW 9.2 mph - N/A   Clear
7:15 AM 3.9 °F -10.4 °F -6.7 °F 61% 30.25 in 10.0 mi SW 9.2 mph - N/A   Clear
7:35 AM 3.7 °F -10.6 °F -6.7 °F 62% 30.26 in 10.0 mi SW 9.2 mph - N/A   Clear
7:55 AM 3.6 °F -8.7 °F -6.7 °F 62% 30.26 in 10.0 mi SW 6.9 mph - N/A   Clear
8:15 AM 3.2 °F -10.3 °F -6.7 °F 63% 30.26 in 10.0 mi SSW 8.1 mph - N/A   Clear
8:55 AM 5.5 °F -9.3 °F -5.3 °F 61% 30.27 in 10.0 mi SW 10.4 mph - N/A   Clear
9:15 AM 6.8 °F -8.6 °F -4.2 °F 61% 30.27 in 10.0 mi SW 11.5 mph - N/A   Clear
9:35 AM 8.8 °F -6.8 °F -4.0 °F 56% 30.28 in 10.0 mi WSW 12.7 mph 17.3 mph N/A   Clear
9:55 AM 10.8 °F -5.6 °F -2.9 °F 54% 30.28 in 10.0 mi WSW 15.0 mph 20.7 mph N/A   Clear
10:15 AM 11.8 °F -3.6 °F -2.4 °F 53% 30.28 in 10.0 mi WSW 13.8 mph 19.6 mph N/A   Clear
10:35 AM 12.9 °F -2.8 °F -2.2 °F 51% 30.28 in 10.0 mi WSW 15.0 mph 18.4 mph N/A   Clear
10:55 AM 14.0 °F -0.2 °F -1.1 °F 51% 30.29 in 10.0 mi WSW 12.7 mph - N/A   Clear
11:15 AM 14.9 °F 0.3 °F -0.4 °F 51% 30.29 in 10.0 mi WSW 13.8 mph 17.3 mph N/A   Clear
11:35 AM 16.0 °F 3.6 °F 0.9 °F 51% 30.28 in 10.0 mi WSW 10.4 mph - N/A   Clear
11:55 AM 16.7 °F 3.2 °F 1.2 °F 51% 30.28 in 10.0 mi WSW 12.7 mph - N/A   Clear
12:15 PM 17.6 °F 3.7 °F 1.9 °F 50% 30.28 in 10.0 mi SW 13.8 mph - N/A   Clear
12:35 PM 18.5 °F 6.8 °F 2.3 °F 49% 30.26 in 10.0 mi WSW 10.4 mph 17.3 mph N/A   Clear
12:55 PM 19.0 °F 6.1 °F 3.2 °F 50% 30.25 in 10.0 mi SW 12.7 mph 18.4 mph N/A   Clear
1:15 PM 19.9 °F 6.2 °F 4.1 °F 50% 30.24 in 10.0 mi SW 15.0 mph 19.6 mph N/A   Clear
1:35 PM 20.3 °F 7.2 °F 3.9 °F 49% 30.24 in 10.0 mi SW 13.8 mph - N/A   Clear
1:55 PM 21.2 °F 8.3 °F 5.0 °F 50% 30.23 in 10.0 mi SW 13.8 mph - N/A   Clear
2:15 PM 21.7 °F 9.0 °F 3.6 °F 46% 30.23 in 10.0 mi WSW 13.8 mph 23.0 mph N/A   Clear
2:35 PM 22.1 °F 8.0 °F 3.7 °F 45% 30.23 in 10.0 mi WSW 17.3 mph 23.0 mph N/A   Clear
2:55 PM 22.6 °F 11.3 °F 4.6 °F 46% 30.23 in 10.0 mi WSW 11.5 mph 24.2 mph N/A   Clear
3:15 PM 22.8 °F 8.9 °F 5.4 °F 47% 30.23 in 10.0 mi WSW 17.3 mph 23.0 mph N/A   Clear
3:35 PM 23.0 °F 9.6 °F 5.4 °F 47% 30.23 in 10.0 mi SW 16.1 mph 21.9 mph N/A   Clear
3:55 PM 23.7 °F 11.5 °F 5.7 °F 46% 30.23 in 10.0 mi SW 13.8 mph - N/A   Clear
4:15 PM 23.7 °F 11.0 °F 4.8 °F 44% 30.23 in 10.0 mi WSW 15.0 mph 21.9 mph N/A   Clear
4:35 PM 23.9 °F 11.7 °F 4.5 °F 43% 30.23 in 10.0 mi SW 13.8 mph 17.3 mph N/A   Clear
4:55 PM 23.7 °F 12.1 °F 4.3 °F 43% 30.24 in 10.0 mi SW 12.7 mph - N/A   Clear
5:15 PM 23.4 °F 11.1 °F 4.3 °F 44% 30.23 in 10.0 mi SW 13.8 mph 17.3 mph N/A   Clear
5:35 PM 22.8 °F 11.5 °F 4.1 °F 45% 30.23 in 10.0 mi SW 11.5 mph - N/A   Clear
5:55 PM 22.1 °F 11.3 °F 4.1 °F 46% 30.23 in 10.0 mi SW 10.4 mph 16.1 mph N/A   Clear
6:15 PM 21.2 °F 10.9 °F 3.9 °F 47% 30.23 in 10.0 mi SW 9.2 mph - N/A   Clear
6:35 PM 19.9 °F 9.3 °F 4.1 °F 50% 30.23 in 10.0 mi SSW 9.2 mph - N/A   Clear
6:55 PM 19.4 °F 10.4 °F 3.7 °F 51% 30.23 in 10.0 mi SSW 6.9 mph - N/A   Clear
7:15 PM 17.8 °F 7.5 °F 3.2 °F 53% 30.23 in 10.0 mi South 8.1 mph - N/A   Clear
7:35 PM 18.5 °F 9.3 °F 3.6 °F 52% 30.24 in 10.0 mi SSW 6.9 mph - N/A   Clear
7:55 PM 17.6 °F 7.3 °F 3.2 °F 53% 30.23 in 10.0 mi SSW 8.1 mph - N/A   Clear
8:15 PM 17.1 °F 6.6 °F 3.2 °F 55% 30.23 in 10.0 mi South 8.1 mph - N/A   Clear
8:35 PM 17.4 °F 7.1 °F 3.0 °F 53% 30.23 in 10.0 mi South 8.1 mph - N/A   Clear
8:55 PM 17.6 °F 7.3 °F 3.0 °F 53% 30.23 in 10.0 mi South 8.1 mph - N/A   Clear
9:15 PM 16.9 °F 5.5 °F 2.8 °F 54% 30.22 in 10.0 mi South 9.2 mph - N/A   Clear
9:35 PM 17.2 °F 6.8 °F 2.7 °F 53% 30.22 in 10.0 mi South 8.1 mph - N/A   Clear
9:55 PM 17.2 °F 5.2 °F 2.7 °F 53% 30.21 in 10.0 mi South 10.4 mph - N/A   Clear
10:15 PM 17.4 °F 4.1 °F 2.3 °F 52% 30.20 in 10.0 mi South 12.7 mph - N/A   Clear
10:35 PM 17.6 °F 4.3 °F 2.3 °F 51% 30.20 in 10.0 mi South 12.7 mph - N/A   Clear
10:55 PM 17.6 °F 5.7 °F 1.9 °F 50% 30.20 in 10.0 mi SSW 10.4 mph - N/A   Clear
11:15 PM 17.6 °F 5.7 °F 1.4 °F 49% 30.19 in 10.0 mi South 10.4 mph - N/A   Clear
11:35 PM 17.2 °F 5.2 °F 1.4 °F 50% 30.18 in 10.0 mi South 10.4 mph - N/A   Clear
11:55 PM 17.2 °F 6.0 °F 1.4 °F 50% 30.18 in 10.0 mi South 9.2 mph - N/A   Clear